User: anonymous   Login
Location: ???????
(55.4362°N, 38.1183°E)
Time: 19:48:18
(UTC+00:00)
Language:

CENTAUR R/B - Orbit

View from above orbital plane
View from above orbital plane
View from above satellite
View from above satellite

Ground track
Ground track

The orbit data is extracted from the following two-line orbital elements,

1 26906U 01040B   21261.13138710 0.00000000  00000-0  00000-0 0    07
2 26906  63.4511 304.5502 0487682 339.5041  20.4529 13.44083669    00
Epoch (UTC): 18 September 2021 03:09:11
Eccentricity: 0.0487682
inclination: 63.4511°
perigee height: 730 km
apogee height: 1458 km
right ascension of ascending node: 304.5502°
argument of perigee: 339.5041°
revolutions per day: 13.44083669
mean anomaly at epoch: 20.4529°
orbit number at epoch: 0

The dashed part of the orbit path shows where the satellite is in the earth's shadow,  

DLR